Nahid 2

operational
NORAD ID: 64886 Int'l Des: NNA 2025-155 Owner: IRSA/IUST Country: IR
LEOCIRCULARRETROGRADESSO

About Nahid 2

Description loading...

Live Position

Loading 3D Globe...

Upcoming Passes

Altitude History

Altitude vs Time

uPlot chart will show altitude changes over time

Two-Line Element Set

1 64886U 25155L 25315.27906503 .00035714 00000-0 13265-2 0 9997
2 64886 97.4258 279.4154 0006287 199.3060 160.7942 15.27452604 47514
Epoch: Nov 11, 2025 • Age: 27 hours

Current Status

Altitude 493.2 km
Velocity 7.62 km/s
Sub-Earth Point -15.20°S, 90.4°E
Launch Date Jul 25, 2025
Age 0.3 years
Type other

Technical Details

Classification Payload
Mass 110.00 kg
Dry Mass 110.00 kg
Total Mass 110.00 kg
Length 1.00 m
Diameter 0.70 m
Span 1.00 m
Shape Box
Manufacturer IUST
Bus Type Fajr
Phase Status In Orbit
Owner/State IRSA/IUST/IR

Large Constellations

Loading constellations...